2023/05/31 00:00:00, 0.0,12.0
2023/05/31 00:10:00, 0.0,12.0
2023/05/31 00:20:00, 0.0,12.0
2023/05/31 00:30:00, 0.0,12.1
2023/05/31 00:40:00, 0.0,11.6
2023/05/31 00:50:00, 0.0,12.0
2023/05/31 01:00:00, 0.0,12.0
2023/05/31 01:10:00, 0.0,11.7
2023/05/31 01:20:00, 0.0,12.1
2023/05/31 01:30:00, 0.0,12.2
2023/05/31 01:40:00, 0.0,12.3
2023/05/31 01:50:00, 0.0,12.3
2023/05/31 02:00:00, 0.1,12.0
2023/05/31 02:10:00, 0.1,11.8
2023/05/31 02:20:00, 0.0,12.0
2023/05/31 02:30:00, 0.0,12.0
2023/05/31 02:40:00, 0.0,11.9
2023/05/31 02:50:00, 0.0,11.9
2023/05/31 03:00:00, 0.0,12.1
2023/05/31 03:10:00, 0.0,12.2
2023/05/31 03:20:00, 0.0,12.0
2023/05/31 03:30:00, 0.0,12.0
2023/05/31 03:40:00, 0.0,11.9
2023/05/31 03:50:00, 0.1,11.9
2023/05/31 04:00:00, 0.2,11.5
2023/05/31 04:10:00, 0.1,11.7
2023/05/31 04:20:00, 0.1,11.5
2023/05/31 04:30:00, 0.1,11.6
2023/05/31 04:40:00, 0.2,11.6
2023/05/31 04:50:00, 0.1,11.7
2023/05/31 05:00:00, 0.1,11.7
2023/05/31 05:10:00, 0.1,11.8
2023/05/31 05:20:00, 0.1,10.9
2023/05/31 05:30:00, 0.1,11.7
2023/05/31 05:40:00, 0.1,11.7
2023/05/31 05:50:00, 0.2,11.8
2023/05/31 06:00:00, 0.1,12.1
2023/05/31 06:10:00, 0.2,12.4
2023/05/31 06:20:00, 0.2,12.8
2023/05/31 06:30:00, 0.3,10.9
2023/05/31 06:40:00, 0.3,12.4
2023/05/31 06:50:00, 0.2,12.8
2023/05/31 07:00:00, 0.3,12.5
2023/05/31 07:10:00, 0.3,12.8
2023/05/31 07:20:00, 0.2,12.7
2023/05/31 07:30:00, 0.2,12.8
2023/05/31 07:40:00, 0.2,12.7
2023/05/31 07:50:00, 0.2,12.6
2023/05/31 08:00:00, 0.3,12.5
2023/05/31 08:10:00, 0.3,12.6
2023/05/31 08:20:00, 0.3,13.3
2023/05/31 08:30:00, 0.4,12.9
2023/05/31 08:40:00, 0.2,13.4
2023/05/31 08:50:00, 0.2,13.4
2023/05/31 09:00:00, 0.4,13.6
2023/05/31 09:10:00, 0.4,14.4
2023/05/31 09:20:00, 0.3,14.8
2023/05/31 09:30:00, 0.4,15.0
2023/05/31 09:40:00, 0.5,15.5
2023/05/31 09:50:00, 0.5,14.9
2023/05/31 10:00:00, 0.5,15.7
2023/05/31 10:10:00, 0.5,16.0
2023/05/31 10:20:00, 0.5,16.5
2023/05/31 10:30:00, 0.7,16.7
2023/05/31 10:40:00, 0.6,16.3
2023/05/31 10:50:00, 0.6,16.7
2023/05/31 11:00:00, 0.5,16.9
2023/05/31 11:10:00, 0.6,16.8
2023/05/31 11:20:00, 0.5,17.1
2023/05/31 11:30:00, 0.5,17.7
2023/05/31 11:40:00,---,18.1
2023/05/31 11:50:00,53.8,19.0
2023/05/31 12:00:00,23.4,19.3
2023/05/31 12:10:00, 0.8,18.8
2023/05/31 12:20:00, 1.0,19.3
2023/05/31 12:30:00, 0.7,19.3
2023/05/31 12:40:00,---,19.8
2023/05/31 12:50:00, 1.1,19.8
2023/05/31 13:00:00, 1.3,20.2
2023/05/31 13:10:00,23.6,20.4
2023/05/31 13:20:00,23.6,20.5
2023/05/31 13:30:00, 1.5,20.9
2023/05/31 13:40:00,---,20.6
2023/05/31 13:50:00,---,21.0
2023/05/31 14:00:00, 0.3,21.1
2023/05/31 14:10:00, 0.3,21.2
2023/05/31 14:20:00, 0.6,21.3
2023/05/31 14:30:00, 1.0,21.3
2023/05/31 14:40:00, 1.0,21.5
2023/05/31 14:50:00, 1.0,21.5
2023/05/31 15:00:00, 0.8,21.7
2023/05/31 15:10:00, 0.8,22.0
2023/05/31 15:20:00, 0.8,21.8
2023/05/31 15:30:00, 0.8,22.4
2023/05/31 15:40:00, 0.7,21.7
2023/05/31 15:50:00, 0.8,22.1
2023/05/31 16:00:00, 0.6,21.9
2023/05/31 16:10:00, 0.2,21.6
2023/05/31 16:20:00, 0.0,20.4
2023/05/31 16:30:00, 0.0,19.4
2023/05/31 16:40:00, 0.5,18.9
2023/05/31 16:50:00, 0.0,20.2
2023/05/31 17:00:00, 0.0,18.7
2023/05/31 17:10:00, 0.0,17.1
2023/05/31 17:20:00, 0.0,16.6
2023/05/31 17:30:00, 0.0,15.9
2023/05/31 17:40:00, 0.0,15.6
2023/05/31 17:50:00, 0.0,15.7
2023/05/31 18:00:00, 0.0,15.0
2023/05/31 18:10:00, 0.0,14.9
2023/05/31 18:20:00, 0.0,14.7
2023/05/31 18:30:00, 0.0,14.6
2023/05/31 18:40:00, 0.0,14.4
2023/05/31 18:50:00, 0.0,14.1
2023/05/31 19:00:00, 0.0,13.4
2023/05/31 19:10:00, 0.1,13.5
2023/05/31 19:20:00, 0.1,13.1
2023/05/31 19:30:00, 0.1,12.9
2023/05/31 19:40:00, 0.1,12.5
2023/05/31 19:50:00, 0.1,12.4
2023/05/31 20:00:00, 0.1,12.6
2023/05/31 20:10:00, 0.1,12.7
2023/05/31 20:20:00, 0.1,12.4
2023/05/31 20:30:00, 0.1,12.3
2023/05/31 20:40:00, 0.1,12.4
2023/05/31 20:50:00, 0.1,12.6
2023/05/31 21:00:00, 0.1,12.3
2023/05/31 21:10:00, 0.1,12.2
2023/05/31 21:20:00, 0.1,12.3
2023/05/31 21:30:00, 0.1,12.3
2023/05/31 21:40:00, 0.1,12.1
2023/05/31 21:50:00, 0.1,12.4
2023/05/31 22:00:00, 0.1,12.5
2023/05/31 22:10:00, 0.1,12.3
2023/05/31 22:20:00, 0.1,12.0
2023/05/31 22:30:00, 0.1,12.8
2023/05/31 22:40:00, 0.1,12.4
2023/05/31 22:50:00, 0.1,12.4
2023/05/31 23:00:00, 0.1,12.4
2023/05/31 23:10:00, 0.0,12.5
2023/05/31 23:20:00, 0.0,12.0
2023/05/31 23:30:00, 0.0,12.2
2023/05/31 23:40:00, 0.0,12.2
2023/05/31 23:50:00, 0.0,12.1
